Regional Weather Roundup
Issued by NWS

Home | Current Version | Previous Version | Graphics & Text | Print | Product List | Glossary On
Versions: 1 2 3 4 5 6 7 8 9 10 11 12 13 14 15 16 17 18 19 20 21 22 23 24 25 26 27 28 29 30 31 32 33 34 35 36 37 38 39 40 41 42 43 44 45 46 47 48 49 50
000
ASUS43 KDTX 231010
RWRMI
MICHIGAN HOURLY REGIONAL WEATHER ROUNDUP
NATIONAL WEATHER SERVICE DETROIT/PONTIAC MI
600 AM EDT SAT SEP 23 2017

NOTE: "FAIR" INDICATES FEW OR NO CLOUDS BELOW 12,000 FEET WITH NO
SIGNIFICANT WEATHER AND/OR OBSTRUCTION TO VISIBILITY.

MIZ047>049-052>055-059>063-066>070-074>076-081>083-231100-
SOUTHEAST LOWER MICHIGAN

CITY           SKY/WX    TMP DP  RH WIND       PRES   REMARKS
ADRIAN           N/A     61  60  97 NW3       30.11R FOG
ALMA           CLEAR     62  61  96 CALM      30.09S FOG
ANN ARBOR      FOG       59  59 100 CALM      30.10R VSB 1/4
BAD AXE        CLEAR     69  65  86 SW5       30.10R
CARO           CLEAR     65  63  92 CALM      30.09R
DETROIT CITY   CLEAR     66  63  90 CALM      30.10R
DETROIT        PTCLDY    66  65  96 CALM      30.11R
FLINT          CLEAR     64  61  90 CALM      30.11R
GROSSE ILE     CLEAR     64  63  97 N3        30.09R FOG
HILLSDALE      CLEAR     61  59  94 CALM      30.11R
HOWELL         CLEAR     65  62  91 CALM      30.10S

CITY           SKY/WX    TMP DP  RH WIND       PRES   REMARKS
JACKSON        CLEAR     64  62  93 CALM      30.10S
LAMBERTVILLE   CLEAR     63  61  93 CALM      30.09S FOG
LANSING        CLEAR     67  62  84 CALM      30.10R
LAPEER         FAIR      63  62  97 CALM      30.11R
MASON          CLEAR     67  63  86 CALM      30.10R
MONROE         FOG       62  60  94 CALM      30.09R VSB 1
MT. CLEMENS    CLOUDY    63  63 100 CALM      30.09R
PONTIAC        MOCLDY    64  63  96 NE3       30.10R
PORT HOPE        N/A     74  66  76 SW7       30.06R
PORT HURON     CLOUDY    64  63  94 CALM      30.10S FOG
TRI CITIES     CLEAR     70  67  90 S8        30.09R
MIDLAND          N/A     63  63 100 CALM      30.08R FOG
TROY           CLEAR     67  63  89 CALM      30.12R
SAGINAW HB     CLEAR     68  64  88 S5        30.08R
$$
MIZ043>046-050>051-056>058-064>065-071>073-077>080-231100-
SOUTHWEST LOWER MICHIGAN

CITY           SKY/WX    TMP DP  RH WIND       PRES   REMARKS
BATTLE CREEK   CLEAR     66  64  93 CALM      30.10R
BENTON HARBOR  CLEAR     71  66  84 SE5       30.06R
BIG RAPIDS     CLEAR     60  59  95 CALM      30.09R
COLDWATER      CLEAR     65  65 100 CALM      30.10R
FREMONT        FAIR      65  65  99 CALM      30.08R
HOLLAND        CLEAR     68  65  90 CALM      30.07R
GRAND RAPIDS   CLEAR     69  65  86 CALM      30.08R
IONIA          FAIR      69  64  83 S3        30.08R
KALAMAZOO      CLEAR     65  61  87 E3        30.10R
LUDINGTON      CLEAR     68  63  84 E5        30.05R
MARSHALL       CLEAR     63  63  97 CALM      30.10R
MOUNT PLEASANT FOG       64  63  94 CALM      30.09R VSB 1
MUSKEGON       CLEAR     70  65  84 CALM      30.07R
SOUTH HAVEN    CLEAR     70  67  90 CALM      30.07R
$$
MIZ016>042-231100-
NORTHERN LOWER MICHIGAN

CITY           SKY/WX    TMP DP  RH WIND       PRES   REMARKS
ALPENA         PTCLDY    64  63  96 CALM      30.06R
BEAVER ISLAND  CLEAR     73  65  77 S8        30.02R
BELLAIRE       CLEAR     62  59  92 CALM      30.05R
CADILLAC       CLEAR     62  57  84 CALM      30.09S
CHARLEVOIX     CLEAR     70  64  79 SE5       30.06R
FRANKFORT      CLEAR     77  66  70 S5        30.04R
GAYLORD        CLEAR     67  62  84 CALM      30.09R
GRAYLING       CLEAR     58  57  94 CALM      30.10R FOG
HARBOR SPRINGS CLEAR     69  63  83 CALM      30.04R
HOUGHTON LAKE  FOG       59  59 100 CALM      30.10R VSB 3/4
MANISTEE       CLEAR     63  62  97 E3        30.05R
OSCODA         CLOUDY    66  66 100 CALM      30.06R
PELLSTON       CLEAR     61  60  97 SE3       30.04S
ROGERS CITY    PTCLDY    71  63  77 SW9       30.05S
TRAVERSE CITY  CLEAR     71  64  78 S3        30.03R
$$
MIZ007>008-015-231100-
EASTERN UPPER MICHIGAN

CITY           SKY/WX    TMP DP  RH WIND       PRES   REMARKS
KINROSS        CLEAR     65  63  93 SE5       30.03S
MACKINAC ISLAN CLEAR     70  62  76 S12       30.02S
NEWBERRY       CLEAR     66  65  97 S9        30.00R
S. S. MARIE    MOCLDY    65  64  97 CALM      30.03R FOG
MUNISING         N/A     70  68  93 S6        29.95R
$$
MIZ004>006-011>014-085-231100-
CENTRAL UPPER MICHIGAN

CITY           SKY/WX    TMP DP  RH WIND       PRES   REMARKS
MANISTIQUE     CLOUDY    65  60  81 S6        30.00R HAZE
ESCANABA       FOG       59  59 100 CALM      29.99R VSB 1/4
MENOMINEE      CLEAR     69  65  86 SW6       30.00R
SAWYER-GWINN   PTCLDY    61  60  97 S6        29.98S FOG
$$
MIZ001>003-009>011-084-231100-
WESTERN UPPER MICHIGAN

CITY           SKY/WX    TMP DP  RH WIND       PRES   REMARKS
IRON MOUNTAIN  FOG       59  57  93 CALM      29.98S VSB 1/2
HOUGHTON       CLOUDY    62  60  93 CALM      29.89S
COPPER HARBOR    N/A     65  62  90 SW13G20   29.85F
IRONWOOD       CLEAR     75  67  76 SW13G21   29.93R
$$

ABBREVIATIONS USED IN REMARKS
   TC - TEMPERATURE IN CELSIUS
  WCI - WIND CHILL INDEX
   HX - HEAT INDEX
  VSB - VISIBILITY





USA.gov is the U.S. government's official web portal to all federal, state and local government web resources and services.